SL-8 R/B

Satellite information

Favourite Embed

Satellite Type and Status

ROCKET BODYIN ORBIT

Key statistics

Satellite SL-8 R/B at a glance.

Uptime

21205

Days in orbit

Revolutions

≈ 14.6

Per day

Orbit

LEO

Low Earth Orbit

Inclination

74.0

Latest

Satellite identification and parameters

Extended collection of information and parameters for SL-8 R/B.

Object identification

Identified? True

Debris? False

Object name: SL-8 R/B

International designator: 1967-116B

Object number (NORAD): 3048

Object ID (CCSDS): 3048

Country: COMMONWEALTH OF INDEPENDENT STATES (CIS)

Current information (Y/N): Y

RCS size: LARGE

Orbital parameters

Period: 98.417 minutes

Inclination: 74.0057 deg

SMA: 7061.113 km

Apoapsis: 687.726 km

Periapsis: 678.23 km

RAAN: 208.8612 deg

Eccentricy: 0.00067248

Argument of periapsis: 359.6126 deg

Mean anomaly: 120.1427 deg

Mean motion: 14.6316403 rev/day

Mean motion (dot): 0.00000817 rev/day2

B* drag term: 0.00016473807 1/REarth

Two-line elements (TLE)

Creation date: Dec. 12, 2025, 10:14 a.m.

Reference frame: TEME

Reference center: EARTH

Epoch: Dec. 12, 2025, 2:28 a.m. UTC

TLE line 0: 0 SL-8 R/B

TLE line 1: 1 03048U 67116B 25346.10292899 .00000817 00000-0 16474-3 0 9997

TLE line 2: 2 03048 74.0057 208.8612 0006725 359.6126 120.1427 14.63164030 78672

Live tracking on map

Real-time ground track for satellite SL-8 R/B.

In-orbit conjunctions

A list of the most updated potential collisions computed for object SL-8 R/B.

Target Orbit TCA Probability of collision Miss distance Type
COSMOS 2251 DEB LEO 2025-02-15 18:31:55 0.0002230515 603.0 (m) DEBRIS
CZ-6A DEB LEO 2024-12-23 16:14:18 0.00029629 62.0 (m) DEBRIS

Associated space launch

The first soviet navigation system called Tsiklon consisted of Zaliv satellites in low earth orbit.

SL-8 R/B was lifted into orbit during the mission ‘Kosmos-3M | Zaliv 1’, on board a Kosmos-3M space rocket.

The launch took place on Nov. 23, 1967, 3 p.m. from 132/2.

For more information about the launch, click the button.

Launch to space Kosmos-3M | Zaliv 1
Kosmos-3M | Zaliv 1

Agency: N/A

Status: Launch Successful

Launch date: Nov. 23, 1967, 3 p.m. UTC

Rocket: Kosmos-3M

Launch pad: 132/2

Location: Plesetsk Cosmodrome, Russian Federation

...

Latest news about this satellite

There are no fresh news available about this satellite. Check back as we update our databases every day.


Newsletter sign-up

Weekly statistics, charts and insights to help you stay on top of the space industry.